1530914400.81,28289,19.75,74132.0,3.93,-8.55,-10.97,0,*4A
1530914402.01,28290,19.75,74132.5,3.93,-8.55,-10.97,0,*42
1530914403.23,28291,19.75,74130.8,3.95,-8.59,-10.93,0,*4D
1530914404.45,28292,19.75,74128.5,3.95,-8.59,-10.97,0,*4A
1530914405.64,28293,19.75,74132.3,3.93,-8.63,-11.01,0,*4A
1530914406.85,28294,19.75,74134.5,3.93,-8.51,-10.85,0,*41
1530914408.04,28295,19.75,74130.0,3.93,-8.41,-10.89,0,*4D
1530914409.26,28296,19.75,74132.0,3.93,-8.41,-10.75,0,*4D
1530914410.45,28297,19.75,74132.8,3.93,-8.41,-10.85,0,*43
1530914411.64,28298,19.75,74130.3,3.93,-8.41,-10.89,0,*40
1530914412.86,28299,19.75,74134.3,3.93,-8.51,-10.89,0,*40
1530914414.05,28300,19.75,74130.5,3.93,-8.41,-10.89,0,*40
1530914415.24,28301,19.75,74134.3,3.93,-8.41,-10.89,0,*41
1530914416.43,28302,19.75,74132.0,3.93,-8.41,-10.85,0,*4E
1530914417.62,28303,19.75,74134.0,3.93,-8.55,-10.89,0,*46
1530914418.81,28304,19.75,74134.5,3.93,-8.63,-10.97,0,*4B
1530914420.01,28305,19.75,74128.8,3.93,-8.55,-10.97,0,*4F
1530914421.21,28306,19.75,74130.8,3.93,-8.63,-10.97,0,*49
1530914422.4,28307,19.75,74132.8,3.93,-8.63,-10.97,0,*48
1530914423.6,28308,19.75,74134.5,3.93,-8.63,-10.97,0,*47
1530914424.79,28309,19.75,74128.0,3.93,-8.63,-11.01,0,*48
1530914425.99,28310,19.75,74132.0,3.93,-8.55,-10.97,0,*4B
1530914427.19,28311,19.75,74128.5,3.93,-8.55,-10.97,0,*4A
1530914428.38,28312,19.75,74128.5,3.93,-8.55,-10.97,0,*49
1530914429.58,28313,19.75,74128.3,3.93,-8.55,-10.97,0,*48
1530914430.8,28314,19.75,74128.0,3.93,-8.51,-10.97,0,*4B
1530914431.99,28315,19.75,74128.8,3.93,-8.63,-10.89,0,*44
1530914433.19,28316,19.75,74128.8,3.93,-8.55,-10.97,0,*4D
1530914434.39,28317,19.75,74132.0,3.89,-8.55,-11.01,0,*49
1530914435.59,28318,19.75,74130.8,3.93,-8.55,-10.97,0,*43
1530914436.81,28319,19.75,74132.0,3.93,-8.51,-10.97,0,*46
1530914438.03,28320,19.75,74132.3,3.93,-8.51,-10.97,0,*4C
1530914439.23,28321,19.75,74132.0,3.89,-8.59,-11.01,0,*40
1530914440.43,28322,19.75,74128.8,3.89,-8.55,-11.01,0,*4F
1530914441.65,28323,19.75,74130.0,3.89,-8.55,-11.07,0,*48
1530914442.87,28324,19.75,74130.3,3.87,-8.67,-11.15,0,*43
1530914444.08,28325,19.75,74132.0,3.87,-8.67,-11.01,0,*47
1530914445.3,28326,19.75,74130.3,3.89,-8.67,-11.07,0,*4C
1530914446.53,28327,19.75,74128.5,3.89,-8.67,-11.07,0,*4D
1530914447.73,28328,19.75,74128.8,3.89,-8.45,-11.01,0,*44
1530914448.92,28329,19.75,74126.0,3.89,-8.55,-11.01,0,*44
1530914450.12,28330,19.75,74130.5,3.89,-8.55,-11.01,0,*4C
1530914451.34,28331,19.75,74132.8,3.87,-8.59,-11.01,0,*4F
1530914452.54,28332,19.75,74128.0,3.89,-8.59,-11.01,0,*42
1530914453.73,28333,19.75,74128.3,3.89,-8.45,-10.89,0,*4F
1530914454.93,28334,19.75,74128.8,3.89,-8.45,-10.89,0,*48
1530914456.13,28335,19.75,74128.0,3.89,-8.55,-11.01,0,*49
1530914457.36,28336,19.75,74130.5,3.89,-8.55,-11.07,0,*4C
1530914458.55,28337,19.75,74128.3,3.89,-8.45,-11.01,0,*4A
1530914459.77,28338,19.75,74128.5,3.93,-8.37,-10.79,0,*45
1530914460.97,28339,19.75,74130.5,3.89,-8.55,-11.01,0,*45
1530914462.2,28340,19.75,74128.5,3.89,-8.59,-11.07,0,*41
1530914463.39,28341,19.75,74128.8,3.89,-8.59,-11.01,0,*46
1530914464.61,28342,19.75,74130.8,3.93,-8.51,-10.97,0,*48
1530914465.83,28343,19.75,74128.8,3.87,-8.45,-10.93,0,*4D
1530914467.03,28344,19.75,74128.3,3.89,-8.55,-10.93,0,*45
1530914468.23,28345,19.75,74134.0,3.89,-8.45,-10.93,0,*45
1530914469.43,28346,19.75,74130.5,3.89,-8.45,-10.93,0,*46
1530914470.63,28347,19.75,74130.5,3.89,-8.55,-10.93,0,*46
1530914471.83,28348,19.75,74130.3,3.89,-8.45,-10.93,0,*48
1530914473.02,28349,19.75,74132.3,3.89,-8.45,-11.01,0,*43
1530914474.24,28350,19.75,74132.3,3.87,-8.45,-11.01,0,*45
1530914475.44,28351,19.75,74132.3,3.89,-8.55,-11.01,0,*4B
1530914476.64,28352,19.75,74130.5,3.89,-8.45,-10.93,0,*43
1530914477.84,28353,19.75,74128.5,3.89,-8.55,-10.93,0,*43
1530914479.04,28354,19.75,74128.8,3.89,-8.45,-10.89,0,*4E
1530914480.26,28355,19.75,74128.0,3.87,-8.45,-10.93,0,*4A
1530914481.46,28356,19.75,74128.3,3.89,-8.55,-11.01,0,*4C
1530914482.65,28357,19.75,74128.8,3.89,-8.55,-11.01,0,*4D
1530914483.87,28358,19.75,74132.3,3.87,-8.59,-11.01,0,*40
1530914485.09,28359,19.75,74128.3,3.89,-8.59,-11.07,0,*49
1530914486.29,28360,19.75,74128.0,3.89,-8.55,-11.01,0,*49
1530914487.49,28361,19.75,74134.5,3.89,-8.45,-10.89,0,*48
1530914488.69,28362,19.75,74128.0,3.89,-8.41,-10.89,0,*4F
1530914489.91,28363,19.75,74130.5,3.87,-8.41,-10.89,0,*40
1530914491.1,28364,19.75,74130.3,3.89,-8.33,-10.89,0,*4C
1530914492.31,28365,19.75,74130.3,3.87,-8.41,-10.93,0,*4D
1530914493.51,28366,19.75,74130.3,3.89,-8.41,-10.93,0,*40
1530914494.71,28367,19.75,74128.0,3.89,-8.41,-10.89,0,*4A
1530914495.91,28368,19.75,74134.8,3.89,-8.45,-10.93,0,*4A
1530914497.1,28369,19.75,74132.8,3.89,-8.33,-10.89,0,*41
1530914498.3,28370,19.75,74130.8,3.89,-8.41,-10.93,0,*47
1530914499.5,28371,19.75,74128.8,3.89,-8.55,-11.01,0,*49
1530914500.7,28372,19.75,74128.8,3.89,-8.55,-11.01,0,*4A
1530914501.89,28373,19.75,74128.8,3.89,-8.45,-10.93,0,*40
1530914503.09,28374,19.75,74132.0,3.89,-8.45,-10.89,0,*4C
1530914504.31,28375,19.75,74132.3,3.87,-8.41,-10.89,0,*47
1530914505.51,28376,19.75,74128.5,3.89,-8.41,-10.93,0,*41
1530914506.7,28377,19.75,74130.5,3.89,-8.41,-10.89,0,*4B
1530914507.9,28378,19.75,74128.0,3.89,-8.33,-10.93,0,*4A
1530914509.12,28379,19.75,74132.0,3.89,-8.41,-10.79,0,*4A
1530914510.32,28380,19.75,74128.8,3.89,-8.41,-10.89,0,*43
1530914511.54,28381,19.75,74128.0,3.89,-8.33,-10.75,0,*44
1530914512.73,28382,19.75,74128.5,3.89,-8.41,-10.89,0,*41
1530914513.96,28383,19.75,74128.0,3.89,-8.41,-10.79,0,*4F
1530914515.17,28384,19.75,74128.3,3.89,-8.33,-10.79,0,*4D
1530914516.39,28385,19.75,74126.8,3.93,-8.29,-10.75,0,*40
1530914517.61,28386,19.75,74130.5,3.93,-8.37,-10.75,0,*4C
1530914518.83,28387,19.75,74128.8,3.93,-8.51,-10.89,0,*4E
1530914520.05,28388,19.75,74130.3,3.93,-8.51,-10.89,0,*41
1530914521.23,28389,19.75,74132.3,3.93,-8.41,-10.85,0,*4D
1530914522.42,28390,19.75,74130.0,3.93,-8.41,-10.85,0,*45
1530914523.63,28391,19.75,74130.0,3.93,-8.29,-10.75,0,*45
1530914524.84,28392,19.75,74132.0,3.95,-8.33,-10.85,0,*44
1530914526.02,28393,19.75,74130.5,3.93,-8.37,-10.85,0,*47
1530914527.24,28394,19.75,74126.5,3.93,-8.37,-10.75,0,*4F
1530914528.43,28395,19.75,74130.5,3.93,-8.37,-10.85,0,*41
1530914529.61,28396,19.75,74128.3,3.93,-8.37,-10.85,0,*42
1530914530.81,28397,19.75,74130.3,3.93,-8.41,-10.89,0,*4E
1530914532.0,28398,19.75,74130.0,3.93,-8.41,-10.97,0,*4E
1530914533.19,28399,19.75,74130.8,3.93,-8.41,-10.89,0,*40
1530914534.38,28400,19.75,74130.3,3.93,-8.41,-10.89,0,*47
1530914535.58,28401,19.75,74128.5,3.89,-8.55,-11.01,0,*49
1530914536.81,28402,19.75,74130.3,3.89,-8.45,-11.07,0,*4D
1530914538.01,28403,19.75,74130.5,3.89,-8.55,-11.01,0,*4B
1530914539.21,28404,19.75,74130.3,3.89,-8.45,-11.01,0,*4D
1530914540.4,28405,19.75,74128.0,3.93,-8.41,-10.97,0,*4D
1530914541.6,28406,19.75,74128.5,3.93,-8.37,-10.97,0,*4F
1530914542.78,28407,19.75,74128.3,3.93,-8.29,-10.85,0,*42
1530914543.99,28408,19.75,74128.3,3.93,-8.29,-10.75,0,*42
1530914545.21,28409,19.75,74128.3,3.93,-8.25,-10.75,0,*4F
1530914546.43,28410,19.75,74130.8,3.93,-8.25,-10.71,0,*43
1530914547.64,28411,19.75,74128.5,3.93,-8.25,-10.71,0,*42
1530914548.86,28412,19.75,74130.3,3.93,-8.37,-10.75,0,*46
1530914550.11,28413,19.75,74128.8,3.95,-8.25,-10.67,0,*41
1530914551.3,28414,19.75,74130.5,3.93,-8.37,-10.89,0,*43
1530914552.5,28415,19.75,74128.8,3.93,-8.37,-10.89,0,*42
1530914553.69,28416,19.75,74128.3,3.93,-8.41,-10.89,0,*40
1530914554.89,28417,19.75,74128.8,3.89,-8.55,-11.01,0,*4E
1530914556.09,28418,19.75,74128.0,3.89,-8.55,-11.01,0,*41
1530914557.29,28419,19.75,74130.5,3.89,-8.55,-10.93,0,*4A
1530914558.48,28420,19.75,74128.3,3.89,-8.45,-10.93,0,*41
1530914559.7,28421,19.75,74132.0,3.93,-8.51,-10.89,0,*45
1530914560.92,28422,19.75,74128.5,3.93,-8.51,-10.97,0,*49
1530914562.15,28423,19.75,74128.8,3.93,-8.51,-10.97,0,*48
1530914563.37,28424,19.75,74130.0,3.93,-8.51,-10.97,0,*4F
1530914564.59,28425,19.75,74128.8,3.93,-8.51,-10.97,0,*4E
1530914565.78,28426,19.75,74128.3,3.93,-8.37,-10.89,0,*42
1530914566.99,28427,19.75,74128.5,3.93,-8.29,-10.71,0,*4B
1530914568.18,28428,19.75,74128.8,3.93,-8.37,-10.85,0,*40
1530914569.37,28429,19.75,74130.5,3.93,-8.37,-10.85,0,*41
1530914570.55,28430,19.75,74128.3,3.93,-8.37,-10.85,0,*49
1530914571.74,28431,19.75,74132.5,3.93,-8.37,-10.89,0,*44
1530914572.94,28432,19.75,74128.3,3.93,-8.41,-10.89,0,*46
1530914574.13,28433,19.75,74128.3,3.93,-8.41,-10.89,0,*47
1530914575.31,28434,19.75,74128.3,3.93,-8.37,-10.85,0,*4D
1530914576.5,28435,19.75,74128.3,3.93,-8.41,-10.85,0,*4D
1530914577.7,28436,19.75,74128.8,3.89,-8.41,-10.93,0,*42
1530914578.89,28437,19.75,74126.5,3.89,-8.33,-10.93,0,*46
1530914580.11,28438,19.75,74128.0,3.89,-8.29,-10.75,0,*4A
1530914581.33,28439,19.75,74128.8,3.89,-8.21,-10.63,0,*44
1530914582.55,28440,19.75,74128.3,3.93,-8.17,-10.71,0,*47
1530914583.76,28441,19.75,74130.5,3.93,-8.29,-10.71,0,*4B
1530914584.98,28442,19.75,74130.3,3.89,-8.33,-10.79,0,*40
1530914586.18,28443,19.75,74128.0,3.89,-8.41,-10.89,0,*4B
1530914587.39,28444,19.75,74130.0,3.89,-8.33,-10.75,0,*4A
1530914588.61,28445,19.75,74128.3,3.93,-8.37,-10.75,0,*44
1530914589.83,28446,19.75,74132.0,3.93,-8.29,-10.75,0,*48
1530914591.05,28447,19.75,74128.0,3.93,-8.37,-10.75,0,*46
1530914592.27,28448,19.75,74128.3,3.93,-8.29,-10.75,0,*46
1530914593.48,28449,19.75,74128.0,3.93,-8.37,-10.75,0,*48
1530914594.7,28450,19.75,74128.0,3.93,-8.37,-10.75,0,*40
1530914595.89,28451,19.75,74128.3,3.93,-8.41,-10.85,0,*4F
1530914597.13,28452,19.75,74128.0,3.95,-8.25,-10.71,0,*43
1530914598.35,28453,19.75,74128.0,3.93,-8.29,-10.75,0,*4C
1530914599.57,28454,19.75,74128.0,3.93,-8.25,-10.75,0,*47
1530914600.78,28455,19.75,74126.3,3.93,-8.25,-10.75,0,*46
1530914602.0,28456,19.75,74130.5,3.93,-8.29,-10.75,0,*49
1530914603.22,28457,19.75,74130.8,3.89,-8.33,-10.79,0,*44
1530914604.44,28458,19.75,74128.3,3.89,-8.41,-10.79,0,*4E
1530914605.66,28459,19.75,74130.0,3.89,-8.33,-10.75,0,*46
1530914606.87,28460,19.75,74128.8,3.93,-8.29,-10.71,0,*48
1530914608.09,28461,19.75,74130.5,3.93,-8.25,-10.71,0,*45
1530914609.28,28462,19.75,74130.3,3.93,-8.17,-10.57,0,*43
1530914610.49,28463,19.75,74128.8,3.93,-8.25,-10.71,0,*47
1530914611.71,28464,19.75,74126.5,3.93,-8.25,-10.71,0,*40
1530914612.93,28465,19.75,74130.0,3.93,-8.25,-10.75,0,*45
1530914614.15,28466,19.75,74128.5,3.93,-8.21,-10.67,0,*41
1530914615.37,28467,19.75,74130.3,3.93,-8.25,-10.75,0,*47
1530914616.58,28468,19.75,74130.5,3.93,-8.25,-10.71,0,*4C
1530914617.86,28469,19.75,74126.3,3.95,-8.11,-10.67,0,*4B
1530914619.07,28470,19.75,74128.3,3.93,-8.25,-10.71,0,*45
1530914620.3,28471,19.75,74126.5,3.93,-8.17,-10.67,0,*42
1530914621.52,28472,19.75,74130.5,3.93,-8.17,-10.67,0,*41
1530914622.74,28473,19.75,74128.3,3.93,-8.17,-10.67,0,*40
1530914623.96,28474,19.75,74128.8,3.93,-8.17,-10.67,0,*47
1530914625.23,28475,19.75,74130.0,3.95,-8.11,-10.63,0,*42
1530914626.47,28476,19.75,74130.5,3.95,-8.29,-10.75,0,*4D
1530914627.71,28477,19.75,74126.8,3.95,-8.21,-10.71,0,*40
1530914628.93,28478,19.75,74128.3,3.93,-8.17,-10.71,0,*4C
1530914630.14,28479,19.75,74130.8,3.93,-8.29,-10.71,0,*40
1530914631.42,28480,19.75,74132.3,3.95,-8.11,-10.67,0,*4C
1530914632.63,28481,19.75,74130.8,3.93,-8.29,-10.71,0,*47
1530914633.9,28482,19.75,74126.5,3.95,-8.11,-10.67,0,*4E
1530914635.13,28483,19.75,74128.8,3.93,-8.17,-10.67,0,*4F
1530914636.37,28484,19.75,74124.0,3.95,-8.11,-10.53,0,*4F
1530914637.61,28485,19.75,74128.3,3.95,-8.07,-10.53,0,*49
1530914638.86,28486,19.75,74130.5,3.95,-8.21,-10.67,0,*49
1530914640.07,28487,19.75,74126.3,3.93,-8.29,-10.71,0,*41
1530914641.31,28488,19.75,74128.3,3.95,-8.25,-10.71,0,*44
1530914642.56,28489,19.75,74130.0,3.95,-8.21,-10.67,0,*46
1530914643.81,28490,19.75,74128.3,3.95,-8.25,-10.67,0,*4A
1530914645.02,28491,19.75,74128.3,3.93,-8.29,-10.71,0,*46
1530914646.23,28492,19.75,74128.8,3.93,-8.29,-10.71,0,*45
1530914647.47,28493,19.75,74124.8,3.95,-8.33,-10.79,0,*41
1530914648.69,28494,19.75,74130.5,3.93,-8.21,-10.67,0,*4C
1530914649.93,28495,19.75,74128.8,3.95,-8.25,-10.71,0,*48
1530914651.15,28496,19.75,74130.5,3.93,-8.29,-10.75,0,*45
1530914652.36,28497,19.75,74130.5,3.93,-8.29,-10.75,0,*44
1530914653.61,28498,19.75,74130.5,3.95,-8.25,-10.67,0,*42
1530914654.84,28499,19.75,74130.5,3.95,-8.33,-10.71,0,*43
1530914656.09,28500,19.75,74128.3,3.95,-8.25,-10.67,0,*42
1530914657.34,28501,19.75,74130.0,3.95,-8.25,-10.67,0,*43
1530914658.56,28502,19.75,74128.8,3.93,-8.29,-10.75,0,*49
1530914659.79,28503,19.75,74128.3,3.95,-8.21,-10.71,0,*42
1530914661.01,28504,19.75,74130.0,3.93,-8.37,-10.71,0,*44
1530914662.26,28505,19.75,74128.8,3.95,-8.25,-10.67,0,*47
1530914663.5,28506,19.75,74128.3,3.95,-8.21,-10.63,0,*44
1530914664.77,28507,19.75,74130.0,3.95,-8.11,-10.63,0,*46
1530914666.01,28508,19.75,74130.0,3.95,-8.21,-10.63,0,*4A
1530914667.26,28509,19.75,74126.5,3.95,-8.21,-10.67,0,*4F
1530914668.5,28510,19.75,74130.5,3.95,-8.21,-10.71,0,*40
1530914669.71,28511,19.75,74128.0,3.93,-8.29,-10.71,0,*4F
1530914670.93,28512,19.75,74128.8,3.93,-8.21,-10.67,0,*43
1530914672.17,28513,19.75,74130.5,3.95,-8.21,-10.63,0,*40
1530914673.45,28514,19.75,74128.5,3.95,-8.11,-10.63,0,*44
1530914674.69,28515,19.75,74124.3,3.95,-8.11,-10.53,0,*46
1530914675.93,28516,19.75,74128.5,3.95,-8.11,-10.53,0,*45
1530914677.18,28517,19.75,74130.8,3.95,-8.11,-10.53,0,*44
1530914678.42,28518,19.75,74128.5,3.95,-8.25,-10.71,0,*4C
1530914679.65,28519,19.75,74128.3,3.95,-8.33,-10.71,0,*4A
1530914680.89,28520,19.75,74128.5,3.95,-8.25,-10.71,0,*47
1530914682.14,28521,19.75,74128.3,3.95,-8.25,-10.67,0,*41
1530914683.39,28522,19.75,74132.3,3.95,-8.25,-10.67,0,*42
1530914684.63,28523,19.75,74128.5,3.95,-8.25,-10.71,0,*44
1530914685.88,28524,19.75,74130.0,3.95,-8.25,-10.67,0,*44
1530914687.15,28525,19.75,74134.5,3.95,-8.11,-10.63,0,*46
1530914688.4,28526,19.75,74128.8,3.95,-8.11,-10.53,0,*46
1530914689.61,28527,19.75,74126.0,3.93,-8.11,-10.53,0,*41
1530914690.86,28528,19.75,74130.0,3.95,-8.11,-10.53,0,*48
1530914692.1,28529,19.75,74130.3,3.95,-8.11,-10.53,0,*49
1530914693.35,28530,19.75,74130.5,3.95,-8.11,-10.53,0,*41
1530914694.59,28531,19.75,74130.0,3.95,-8.21,-10.63,0,*40
1530914695.8,28532,19.75,74130.5,3.93,-8.25,-10.71,0,*42
1530914697.04,28533,19.75,74124.8,3.95,-8.25,-10.71,0,*45
1530914698.29,28534,19.75,74130.0,3.95,-8.25,-10.67,0,*45
1530914699.51,28535,19.75,74128.8,3.95,-8.21,-10.53,0,*47
1530914700.75,28536,19.75,74128.8,3.95,-8.21,-10.63,0,*47
1530914702.02,28537,19.75,74126.0,3.95,-8.11,-10.67,0,*41
1530914703.27,28538,19.75,74130.3,3.95,-8.21,-10.63,0,*49
1530914704.51,28539,19.75,74128.3,3.95,-8.25,-10.67,0,*48
1530914705.76,28540,19.75,74130.5,3.95,-8.25,-10.67,0,*46
1530914706.99,28541,19.75,74128.8,3.97,-8.21,-10.53,0,*46
1530914708.21,28542,19.75,74128.8,3.97,-8.21,-10.53,0,*45
1530914709.46,28543,19.75,74128.8,3.97,-8.21,-10.63,0,*47
1530914710.71,28544,19.75,74130.8,3.97,-8.21,-10.63,0,*40
1530914711.96,28545,19.75,74124.3,3.97,-8.33,-10.67,0,*46
1530914713.2,28546,19.75,74132.8,3.95,-8.25,-10.71,0,*47
1530914714.44,28547,19.75,74130.0,3.95,-8.33,-10.67,0,*46
1530914715.69,28548,19.75,74126.5,3.95,-8.37,-10.71,0,*4A
1530914716.93,28549,19.75,74128.5,3.95,-8.25,-10.71,0,*48
1530914718.14,28550,19.75,74126.5,3.95,-8.21,-10.53,0,*44
1530914719.39,28551,19.75,74130.0,3.95,-8.11,-10.49,0,*4D
1530914720.6,28552,19.75,74130.3,3.95,-8.21,-10.53,0,*46
1530914721.82,28553,19.75,74130.5,3.95,-8.21,-10.53,0,*47
1530914723.08,28554,19.75,74130.8,3.95,-8.03,-10.41,0,*43
1530914724.33,28555,19.75,74128.8,3.95,-8.07,-10.53,0,*45
1530914725.58,28556,19.75,74126.5,3.97,-8.07,-10.49,0,*4F
1530914726.83,28557,19.75,74128.3,3.97,-8.11,-10.49,0,*49
1530914728.11,28558,19.75,74128.0,3.97,-8.03,-10.41,0,*4D
1530914729.36,28559,19.75,74130.5,3.97,-8.07,-10.49,0,*40
1530914730.59,28560,19.75,74130.5,3.99,-8.21,-10.63,0,*48
1530914731.84,28561,19.75,74130.5,3.97,-8.25,-10.63,0,*43
1530914733.1,28562,19.75,74128.0,3.97,-8.11,-10.53,0,*44
1530914734.35,28563,19.75,74130.0,3.97,-8.07,-10.49,0,*49
1530914735.59,28564,19.75,74128.8,3.97,-8.03,-10.45,0,*46
1530914736.85,28565,19.75,74128.3,3.97,-8.11,-10.49,0,*48
1530914738.07,28566,19.75,74128.5,3.99,-8.03,-10.35,0,*4D
1530914739.33,28567,19.75,74128.3,3.97,-8.07,-10.49,0,*4D
1530914740.58,28568,19.75,74128.5,3.97,-8.07,-10.49,0,*42
1530914741.8,28569,19.75,74128.3,3.99,-8.03,-10.45,0,*45
1530914743.06,28570,19.75,74124.0,3.97,-8.07,-10.49,0,*4B
1530914744.31,28571,19.75,74130.5,3.97,-8.11,-10.53,0,*46
1530914745.56,28572,19.75,74130.5,3.97,-8.07,-10.53,0,*42
1530914746.82,28573,19.75,74124.8,3.97,-8.07,-10.49,0,*48
1530914748.09,28574,19.75,74128.3,3.97,-8.03,-10.41,0,*43
1530914749.31,28575,19.75,74126.3,3.99,-8.03,-10.45,0,*48
1530914750.54,28576,19.75,74128.3,3.99,-7.99,-10.35,0,*40
1530914751.76,28577,19.75,74130.8,3.99,-8.03,-10.45,0,*4A
1530914753.02,28578,19.75,74130.8,3.97,-8.11,-10.49,0,*44
1530914754.25,28579,19.75,74130.0,3.99,-8.07,-10.45,0,*40
1530914755.53,28580,19.75,74128.8,3.97,-8.11,-10.41,0,*4B
1530914756.73,28581,19.75,74128.3,3.99,-8.17,-10.49,0,*4A
1530914757.98,28582,19.75,74128.5,3.97,-8.07,-10.53,0,*4D
1530914759.23,28583,19.75,74130.0,3.97,-8.11,-10.53,0,*4B
1530914760.43,28584,19.75,74126.8,3.99,-8.17,-10.45,0,*43
1530914761.69,28585,19.75,74130.8,3.97,-8.11,-10.53,0,*4D
1530914762.89,28586,19.75,74130.0,3.99,-8.17,-10.49,0,*4D
1530914764.14,28587,19.75,74130.0,3.97,-8.07,-10.49,0,*43
1530914765.39,28588,19.75,74128.3,3.97,-8.11,-10.57,0,*44
1530914766.62,28589,19.75,74126.3,3.97,-8.21,-10.53,0,*42
1530914767.84,28590,19.75,74130.8,3.97,-8.25,-10.53,0,*4E
1530914769.07,28591,19.75,74128.5,3.97,-8.21,-10.53,0,*4B
1530914770.32,28592,19.75,74128.3,3.97,-8.07,-10.49,0,*47
1530914771.6,28593,19.75,74128.0,3.97,-8.07,-10.41,0,*4E
1530914772.86,28594,19.75,74130.0,3.97,-8.11,-10.49,0,*46
1530914774.09,28595,19.75,74130.0,3.99,-8.07,-10.49,0,*4E
1530914775.32,28596,19.75,74130.0,3.99,-8.07,-10.49,0,*4D
1530914776.52,28597,19.75,74128.8,3.99,-8.17,-10.49,0,*4D
1530914777.74,28598,19.75,74128.0,3.97,-8.21,-10.53,0,*42
1530914778.99,28599,19.75,74128.8,3.97,-8.11,-10.53,0,*40
1530914780.22,28600,19.75,74130.8,3.97,-8.21,-10.53,0,*40
1530914781.44,28601,19.75,74124.0,3.97,-8.21,-10.49,0,*4A
1530914782.64,28602,19.75,74130.3,3.99,-8.17,-10.45,0,*4E
1530914783.87,28603,19.75,74130.0,3.99,-8.07,-10.49,0,*42
1530914785.12,28604,19.75,74124.8,3.97,-8.11,-10.53,0,*47
1530914786.35,28605,19.75,74124.3,3.99,-8.07,-10.49,0,*44
1530914787.61,28606,19.75,74128.3,3.97,-8.11,-10.49,0,*4E
1530914788.86,28607,19.75,74130.8,3.97,-8.11,-10.49,0,*4F
1530914790.06,28608,19.75,74128.5,3.99,-8.17,-10.45,0,*44
1530914791.28,28609,19.75,74130.0,3.97,-8.21,-10.53,0,*49
1530914792.54,28610,19.75,74130.0,3.97,-8.11,-10.53,0,*42
1530914793.76,28611,19.75,74128.8,3.99,-8.03,-10.49,0,*45
1530914794.99,28612,19.75,74134.3,3.99,-8.07,-10.49,0,*42
1530914796.19,28613,19.75,74130.0,3.99,-8.17,-10.49,0,*42
1530914797.44,28614,19.75,74128.3,3.97,-8.11,-10.53,0,*46
1530914798.67,28615,19.75,74128.8,3.99,-8.07,-10.45,0,*49
1530914799.9,28616,19.75,74124.8,3.97,-8.21,-10.49,0,*4C
1530914801.12,28617,19.75,74130.0,3.99,-8.11,-10.45,0,*4C
1530914802.35,28618,19.75,74128.8,3.97,-8.21,-10.49,0,*42
1530914803.58,28619,19.75,74128.0,3.99,-8.07,-10.45,0,*45
1530914804.8,28620,19.75,74126.5,3.97,-8.21,-10.53,0,*42
1530914806.03,28621,19.75,74130.0,3.99,-8.07,-10.45,0,*4E
1530914807.28,28622,19.75,74126.3,3.97,-8.03,-10.35,0,*40
1530914808.53,28623,19.75,74128.3,3.97,-8.11,-10.45,0,*45
1530914809.73,28624,19.75,74128.0,3.99,-8.17,-10.45,0,*4A
1530914810.99,28625,19.75,74128.0,3.97,-8.11,-10.49,0,*4F
1530914812.22,28626,19.75,74128.3,3.99,-8.07,-10.45,0,*49
1530914813.49,28627,19.75,74128.8,3.97,-8.03,-10.41,0,*46
1530914814.72,28628,19.75,74128.8,3.99,-7.99,-10.35,0,*48
1530914815.95,28629,19.75,74128.3,3.99,-8.03,-10.35,0,*45
1530914817.17,28630,19.75,74128.5,3.97,-8.21,-10.49,0,*48
1530914818.37,28631,19.75,74130.3,3.99,-8.17,-10.45,0,*4E
1530914819.6,28632,19.75,74128.8,3.97,-8.21,-10.49,0,*4A
1530914820.8,28633,19.75,74130.8,3.99,-8.17,-10.49,0,*40
1530914822.0,28634,19.75,74130.5,3.99,-8.21,-10.53,0,*49
1530914823.23,28635,19.75,74126.8,3.99,-8.17,-10.63,0,*4E
1530914824.45,28636,19.75,74128.3,3.99,-8.03,-10.49,0,*40
1530914825.68,28637,19.75,74126.5,3.99,-8.07,-10.45,0,*49
1530914826.91,28638,19.75,74126.5,3.99,-8.07,-10.45,0,*46
1530914828.16,28639,19.75,74126.0,3.97,-8.21,-10.41,0,*49
1530914829.39,28640,19.75,74130.8,3.97,-8.21,-10.49,0,*4F
1530914830.64,28641,19.75,74126.3,3.97,-8.11,-10.53,0,*46
1530914831.89,28642,19.75,74130.0,3.97,-8.11,-10.49,0,*4E
1530914833.12,28643,19.75,74128.3,3.99,-7.99,-10.35,0,*45
1530914834.34,28644,19.75,74130.8,3.99,-8.03,-10.31,0,*4A
1530914835.57,28645,19.75,74126.8,3.99,-8.07,-10.45,0,*4C
1530914836.83,28646,19.75,74128.8,3.97,-8.11,-10.49,0,*4A
1530914838.05,28647,19.75,74124.8,3.99,-8.03,-10.35,0,*4D
1530914839.28,28648,19.75,74128.8,3.99,-7.99,-10.35,0,*4E
1530914840.51,28649,19.75,74126.5,3.99,-7.99,-10.31,0,*4B
1530914841.71,28650,19.75,74126.8,3.99,-7.87,-10.23,0,*4F
1530914842.94,28651,19.75,74130.5,3.99,-7.91,-10.31,0,*4A
1530914844.14,28652,19.75,74126.8,3.99,-7.87,-10.19,0,*44
1530914845.34,28653,19.75,74126.8,3.99,-7.87,-10.09,0,*44
1530914846.59,28654,19.75,74128.8,4.01,-7.91,-10.19,0,*43
1530914847.84,28655,19.75,74130.0,4.01,-7.99,-10.31,0,*40
1530914849.1,28656,19.75,74126.8,4.01,-7.99,-10.35,0,*47
1530914850.32,28657,19.75,74130.0,4.03,-7.99,-10.31,0,*40
1530914851.57,28658,19.75,74124.5,4.01,-7.99,-10.31,0,*4D
1530914852.82,28659,19.75,74128.5,4.01,-8.03,-10.31,0,*40
1530914854.06,28660,19.75,74130.5,4.01,-7.99,-10.23,0,*45
1530914855.32,28661,19.75,74130.3,4.01,-7.91,-10.19,0,*45
1530914856.56,28662,19.75,74130.8,4.01,-7.99,-10.23,0,*47
1530914857.81,28663,19.75,74128.0,4.01,-7.91,-10.23,0,*4E
1530914859.06,28664,19.75,74124.8,4.01,-7.99,-10.31,0,*42
1530914860.3,28665,19.75,74128.0,4.01,-7.91,-10.23,0,*48
1530914861.55,28666,19.75,74126.3,4.01,-8.03,-10.35,0,*48
1530914862.78,28667,19.75,74128.3,4.01,-8.17,-10.45,0,*4B
1530914864.0,28668,19.75,74130.8,4.01,-8.17,-10.45,0,*44
1530914865.26,28669,19.75,74128.3,4.01,-8.07,-10.35,0,*43
1530914866.51,28670,19.75,74126.8,4.01,-7.99,-10.23,0,*44
1530914867.74,28671,19.75,74124.0,4.01,-7.87,-10.19,0,*43
1530914868.97,28672,19.75,74130.0,4.01,-7.87,-10.19,0,*40
1530914870.19,28673,19.75,74130.0,4.01,-7.87,-10.09,0,*40
1530914871.39,28674,19.75,74128.5,4.03,-7.87,-10.19,0,*44
1530914872.61,28675,19.75,74126.0,4.03,-7.95,-10.27,0,*4B
1530914873.84,28676,19.75,74128.5,4.03,-7.99,-10.27,0,*44
1530914875.06,28677,19.75,74126.8,4.03,-7.95,-10.19,0,*44
1530914876.31,28678,19.75,74128.8,4.01,-8.03,-10.31,0,*43
1530914877.56,28679,19.75,74126.0,4.01,-7.99,-10.19,0,*44
1530914878.76,28680,19.75,74130.5,4.03,-7.83,-10.05,0,*46
1530914879.98,28681,19.75,74124.0,4.01,-7.87,-10.09,0,*4D
1530914881.2,28682,19.75,74124.8,4.01,-7.87,-10.09,0,*4E
1530914882.42,28683,19.75,74126.3,4.01,-7.87,-10.09,0,*4F
1530914883.61,28684,19.75,74126.0,4.03,-7.83,-10.05,0,*42
1530914884.81,28685,19.75,74124.8,4.03,-7.83,-10.01,0,*47
1530914886.01,28686,19.75,74130.5,4.03,-7.83,-10.01,0,*44
1530914887.23,28687,19.75,74126.0,4.01,-7.87,-10.09,0,*4B
1530914888.43,28688,19.75,74128.3,4.03,-7.87,-10.15,0,*4B
1530914889.63,28689,19.75,74126.0,4.03,-7.87,-10.15,0,*4A
1530914890.83,28690,19.75,74128.5,4.03,-7.87,-10.15,0,*42
1530914892.06,28691,19.75,74128.3,4.03,-7.95,-10.19,0,*4C
1530914893.27,28692,19.75,74130.0,4.03,-7.95,-10.05,0,*42
1530914894.47,28693,19.75,74128.8,4.03,-7.83,-10.01,0,*40
1530914895.67,28694,19.75,74128.3,4.03,-7.83,-10.05,0,*43
1530914896.86,28695,19.75,74128.5,4.03,-7.87,-10.05,0,*46
1530914898.08,28696,19.75,74126.8,4.03,-7.99,-10.15,0,*4B
1530914899.28,28697,19.75,74124.3,4.03,-7.83,-10.01,0,*44
1530914900.47,28698,19.75,74124.8,4.03,-7.87,-10.05,0,*4B
1530914901.67,28699,19.75,74128.3,4.03,-7.83,-10.01,0,*4A
1530914902.9,28700,19.75,74128.0,4.01,-7.87,-10.09,0,*45
1530914904.09,28701,19.75,74124.5,4.03,-7.83,-10.01,0,*4A
1530914905.31,28702,19.75,74126.0,4.03,-7.95,-10.05,0,*4A